• In Hungary
  • List of Countries
  • For 7 days
  • Water Temperature
  • Satellite Maps
  • Weather Map
  • News
  • Weather Widgets
  • user-avatar
    Login

    Hourly Weather Kiczanki

    Today, 22 October, Monday

    Time Temperature Precipitation Wind Pressure Humidity
    00:00 +4°C° 0 mm 0 mps 731 mmHg 89%
    01:00 +3°C° 0 mm 0 mps 731 mmHg 89%
    02:00 +3°C° 0 mm 0 mps 731 mmHg 89%
    03:00 +4°C° 0 mm 1 mps 730 mmHg 89%
    04:00 +4°C° 0 mm 1 mps 730 mmHg 89%
    05:00 +3°C° 0 mm 0 mps 730 mmHg 88%
    06:00 +4°C° 0 mm 0 mps 730 mmHg 87%
    07:00 +4°C° 0 mm 0 mps 730 mmHg 85%
    08:00 +6°C° 0 mm 0 mps 730 mmHg 76%
    09:00 +8°C° 0 mm 0 mps 730 mmHg 67%
    10:00 +11°C° 0 mm 0 mps 730 mmHg 59%
    11:00 +11°C° 0 mm 0 mps 730 mmHg 56%
    12:00 +13°C° 0 mm 1 mps 730 mmHg 53%
    13:00 +14°C° 0 mm 1 mps 729 mmHg 50%
    14:00 +13°C° 0 mm 1 mps 729 mmHg 55%
    15:00 +12°C° 0 mm 1 mps 729 mmHg 60%
    16:00 +11°C° 0 mm 1 mps 728 mmHg 64%
    17:00 +10°C° 0 mm 1 mps 728 mmHg 69%
    18:00 +8°C° 0 mm 1 mps 728 mmHg 74%
    19:00 +7°C° 0 mm 1 mps 728 mmHg 78%
    20:00 +7°C° 0 mm 1 mps 728 mmHg 79%
    21:00 +6°C° 0 mm 2 mps 729 mmHg 79%
    22:00 +6°C° 0 mm 2 mps 729 mmHg 79%
    23:00 +7°C° 0.2 mm 2 mps 729 mmHg 80%

    Tomorrow, 23 October, Tuesday

    Time Temperature Precipitation Wind Pressure Humidity
    00:00 +7°C° 0.2 mm 2 mps 729 mmHg 82%
    01:00 +7°C° 0.2 mm 2 mps 728 mmHg 83%
    02:00 +7°C° 0.2 mm 2 mps 728 mmHg 85%
    03:00 +7°C° 0.2 mm 3 mps 728 mmHg 87%
    04:00 +5°C° 0.2 mm 3 mps 728 mmHg 89%
    05:00 +5°C° 0 mm 3 mps 728 mmHg 89%
    06:00 +5°C° 0 mm 2 mps 728 mmHg 90%
    07:00 +5°C° 0 mm 2 mps 728 mmHg 90%
    08:00 +5°C° 0 mm 3 mps 728 mmHg 83%
    09:00 +7°C° 0 mm 3 mps 727 mmHg 75%
    10:00 +8°C° 0 mm 3 mps 727 mmHg 68%
    11:00 +7°C° 0.1 mm 4 mps 726 mmHg 67%
    12:00 +7°C° 0.1 mm 4 mps 725 mmHg 65%
    13:00 +7°C° 0.1 mm 4 mps 724 mmHg 63%
    14:00 +7°C° 0.2 mm 4 mps 723 mmHg 66%
    15:00 +7°C° 0.2 mm 5 mps 722 mmHg 69%
    16:00 +6°C° 0.2 mm 5 mps 721 mmHg 72%
    17:00 +6°C° 0.5 mm 5 mps 721 mmHg 75%
    18:00 +5°C° 0.5 mm 6 mps 720 mmHg 78%
    19:00 +5°C° 0.5 mm 6 mps 719 mmHg 80%
    20:00 +5°C° 0.4 mm 6 mps 718 mmHg 81%
    21:00 +5°C° 0.4 mm 6 mps 718 mmHg 81%
    22:00 +6°C° 0.4 mm 7 mps 717 mmHg 82%
    23:00 +7°C° 0.8 mm 6 mps 716 mmHg 83%

    Day after tomorrow, 24 October, Wednesday

    Time Temperature Precipitation Wind Pressure Humidity
    00:00 +7°C° 0.8 mm 6 mps 715 mmHg 85%
    01:00 +8°C° 0.8 mm 6 mps 715 mmHg 86%
    02:00 +8°C° 1.2 mm 7 mps 714 mmHg 86%
    03:00 +7°C° 1.2 mm 8 mps 713 mmHg 86%
    04:00 +9°C° 1.2 mm 8 mps 712 mmHg 85%
    05:00 +7°C° 2 mm 8 mps 712 mmHg 83%
    06:00 +6°C° 2 mm 8 mps 712 mmHg 80%
    07:00 +5°C° 2 mm 8 mps 712 mmHg 77%
    08:00 +4°C° 0.3 mm 8 mps 713 mmHg 73%
    09:00 +3°C° 0.3 mm 9 mps 714 mmHg 68%
    10:00 +2°C° 0.3 mm 9 mps 715 mmHg 63%
    11:00 +2°C° 0.1 mm 9 mps 715 mmHg 60%
    12:00 +3°C° 0.1 mm 9 mps 715 mmHg 57%
    13:00 +3°C° 0.1 mm 9 mps 716 mmHg 54%
    14:00 +2°C° 0.1 mm 8 mps 716 mmHg 55%
    15:00 +2°C° 0.1 mm 8 mps 716 mmHg 55%
    16:00 +3°C° 0.1 mm 7 mps 717 mmHg 56%
    17:00 +2°C° 0.1 mm 7 mps 717 mmHg 57%
    18:00 +2°C° 0.1 mm 7 mps 718 mmHg 58%
    19:00 +2°C° 0.1 mm 6 mps 719 mmHg 59%
    20:00 +1°C° 0 mm 6 mps 719 mmHg 61%
    21:00 +1°C° 0 mm 6 mps 720 mmHg 62%
    22:00 -1°C° 0 mm 6 mps 720 mmHg 64%
    23:00 -1°C° 0 mm 6 mps 721 mmHg 66%

    25 October, Thursday

    Time Temperature Precipitation Wind Pressure Humidity
    00:00 -1°C° 0 mm 6 mps 721 mmHg 67%
    01:00 0°C° 0 mm 5 mps 722 mmHg 69%
    02:00 0°C° 0 mm 5 mps 722 mmHg 72%
    03:00 0°C° 0 mm 5 mps 722 mmHg 75%
    04:00 -1°C° 0 mm 5 mps 723 mmHg 78%
    05:00 -1°C° 0 mm 4 mps 723 mmHg 79%
    06:00 -1°C° 0 mm 4 mps 723 mmHg 80%
    07:00 -1°C° 0 mm 4 mps 724 mmHg 81%
    08:00 +1°C° 0 mm 4 mps 724 mmHg 75%
    09:00 +2°C° 0 mm 5 mps 724 mmHg 69%
    10:00 +5°C° 0 mm 5 mps 724 mmHg 63%
    11:00 +5°C° 0 mm 5 mps 724 mmHg 61%
    12:00 +6°C° 0 mm 5 mps 723 mmHg 59%
    13:00 +7°C° 0 mm 5 mps 723 mmHg 58%
    14:00 +6°C° 0.1 mm 5 mps 723 mmHg 64%
    15:00 +6°C° 0.1 mm 4 mps 722 mmHg 71%
    16:00 +6°C° 0.1 mm 4 mps 722 mmHg 77%
    17:00 +6°C° 0 mm 4 mps 722 mmHg 79%
    18:00 +6°C° 0 mm 4 mps 722 mmHg 80%
    19:00 +6°C° 0 mm 4 mps 722 mmHg 82%
    20:00 +7°C° 0 mm 3 mps 722 mmHg 84%
    21:00 +7°C° 0 mm 3 mps 722 mmHg 86%
    22:00 +7°C° 0 mm 3 mps 722 mmHg 88%
    23:00 +7°C° 0 mm 3 mps 722 mmHg 89%

    26 October, Friday

    Time Temperature Precipitation Wind Pressure Humidity
    00:00 +7°C° 0 mm 3 mps 722 mmHg 90%
    01:00 +7°C° 0 mm 3 mps 722 mmHg 91%
    02:00 +5°C° 0 mm 3 mps 722 mmHg 91%
    03:00 +6°C° 0 mm 2 mps 722 mmHg 91%
    04:00 +6°C° 0 mm 2 mps 721 mmHg 91%
    05:00 +6°C° 0 mm 2 mps 721 mmHg 92%
    06:00 +6°C° 0 mm 2 mps 721 mmHg 92%
    07:00 +6°C° 0 mm 2 mps 721 mmHg 92%
    08:00 +7°C° 0 mm 2 mps 722 mmHg 84%
    09:00 +9°C° 0 mm 2 mps 722 mmHg 77%
    10:00 +12°C° 0 mm 2 mps 722 mmHg 70%
    11:00 +11°C° 0 mm 3 mps 721 mmHg 66%
    12:00 +12°C° 0 mm 3 mps 721 mmHg 63%
    13:00 +13°C° 0 mm 3 mps 720 mmHg 60%
    14:00 +13°C° 0 mm 2 mps 720 mmHg 65%
    15:00 +12°C° 0 mm 2 mps 720 mmHg 70%
    16:00 +10°C° 0 mm 2 mps 719 mmHg 75%
    17:00 +9°C° 0 mm 2 mps 719 mmHg 78%
    18:00 +8°C° 0 mm 2 mps 719 mmHg 82%
    19:00 +8°C° 0 mm 3 mps 719 mmHg 86%
    20:00 +7°C° 0 mm 3 mps 719 mmHg 86%
    21:00 +7°C° 0 mm 3 mps 718 mmHg 87%
    22:00 +7°C° 0 mm 3 mps 718 mmHg 88%
    23:00 +7°C° 0 mm 3 mps 718 mmHg 88%

    27 October, Saturday

    Time Temperature Precipitation Wind Pressure Humidity
    00:00 +7°C° 0 mm 2 mps 718 mmHg 89%
    01:00 +7°C° 0 mm 2 mps 718 mmHg 89%
    02:00 +7°C° 0 mm 2 mps 717 mmHg 90%
    03:00 +7°C° 0 mm 2 mps 717 mmHg 90%
    04:00 +7°C° 0 mm 2 mps 717 mmHg 91%
    05:00 +8°C° 0 mm 2 mps 717 mmHg 91%
    06:00 +8°C° 0 mm 2 mps 716 mmHg 91%
    07:00 +8°C° 0 mm 2 mps 716 mmHg 91%
    08:00 +10°C° 0 mm 3 mps 716 mmHg 85%
    09:00 +12°C° 0 mm 3 mps 716 mmHg 80%
    10:00 +14°C° 0 mm 3 mps 716 mmHg 75%
    11:00 +14°C° 0 mm 4 mps 715 mmHg 75%
    12:00 +14°C° 0 mm 4 mps 715 mmHg 76%
    13:00 +14°C° 0 mm 4 mps 714 mmHg 76%
    14:00 +14°C° 0.1 mm 4 mps 714 mmHg 77%
    15:00 +14°C° 0.1 mm 4 mps 713 mmHg 77%
    16:00 +14°C° 0.1 mm 4 mps 713 mmHg 78%
    17:00 +14°C° 0 mm 4 mps 712 mmHg 78%
    18:00 +13°C° 0 mm 4 mps 712 mmHg 79%
    19:00 +13°C° 0 mm 4 mps 712 mmHg 79%
    20:00 +13°C° 0 mm 4 mps 712 mmHg 79%
    21:00 +13°C° 0 mm 5 mps 712 mmHg 80%
    22:00 +13°C° 0 mm 5 mps 712 mmHg 80%
    23:00 +13°C° 0.2 mm 5 mps 712 mmHg 81%

    28 October, Sunday

    Time Temperature Precipitation Wind Pressure Humidity
    00:00 +13°C° 0.2 mm 5 mps 712 mmHg 81%
    01:00 +13°C° 0.2 mm 5 mps 712 mmHg 82%
    02:00 +12°C° 0.5 mm 4 mps 712 mmHg 84%
    03:00 +11°C° 0.5 mm 4 mps 712 mmHg 86%
    04:00 +10°C° 0.5 mm 3 mps 713 mmHg 89%
    05:00 +10°C° 1 mm 3 mps 713 mmHg 89%
    06:00 +9°C° 1 mm 3 mps 713 mmHg 90%
    07:00 +8°C° 1 mm 3 mps 714 mmHg 90%
    08:00 +8°C° 1.1 mm 2 mps 714 mmHg 90%
    09:00 +8°C° 1.1 mm 2 mps 715 mmHg 90%
    10:00 +8°C° 1.1 mm 2 mps 715 mmHg 90%
    11:00 +8°C° 0.4 mm 2 mps 716 mmHg 89%
    12:00 +8°C° 0.4 mm 2 mps 716 mmHg 88%
    13:00 +8°C° 0.4 mm 2 mps 716 mmHg 88%
    14:00 +8°C° 0.4 mm 2 mps 716 mmHg 89%
    15:00 +9°C° 0.4 mm 1 mps 716 mmHg 90%
    16:00 +9°C° 0.4 mm 1 mps 717 mmHg 92%
    17:00 +8°C° 0.1 mm 1 mps 717 mmHg 93%
    18:00 +8°C° 0.1 mm 1 mps 717 mmHg 93%
    19:00 +8°C° 0.1 mm 1 mps 718 mmHg 94%
    20:00 +8°C° 0.1 mm 1 mps 718 mmHg 94%
    21:00 +8°C° 0.1 mm 1 mps 718 mmHg 94%
    22:00 +8°C° 0.1 mm 1 mps 719 mmHg 94%
    23:00 +7°C° 0.2 mm 1 mps 719 mmHg 94%
    Show more